St. Joseph, KS

11:01 AM CST on November 12, 2019 (GMT -0600)
Rosecrans Memorial

Weather History for KSTJ - September, 2019

Change the Weather History Date:

Tuesday, September 3, 2019

  Actual Average Record
Temperature  
Mean Temperature 82 °F 71 °F  
Max Temperature 92 °F 83 °F 107 °F (1947)
Min Temperature 71 °F 59 °F 36 °F (1974)
Degree Days  
Heating Degree Days 0 1  
Month to date heating degree days 0 1  
Since 1 July heating degree days 0 6  
Cooling Degree Days 17 7  
Month to date cooling degree days 33 21  
Year to date cooling degree days 1177 1098  
Growing Degree Days 33 (Base 50)    
Moisture  
Dew Point 71 °F    
Average Humidity 71    
Maximum Humidity 85    
Minimum Humidity 56    
Precipitation  
Precipitation 0.00 in 0.14 in 2.27 in (1961)
Month to date precipitation 0.00 0.46  
Year to date precipitation 29.27 26.76  
Sea Level Pressure  
Sea Level Pressure 29.92 in    
Wind  
Wind Speed 7 mph (WSW)    
Max Wind Speed 18 mph    
Max Gust Speed 25 mph    
Visibility 9 miles    
Events      
T = Trace of Precipitation, MM = Missing Value Source: NWS Daily Summary

Daily Weather History Graph

Daily Weather History Graph

Search for Another Location

Airport or City:

Astronomy

Sep. 03, 2019 Rise Set
Actual Time 6:49 AM CDT 7:48 PM CDT
Civil Twilight 6:21 AM CDT 8:15 PM CDT
Nautical Twilight 5:48 AM CDT 8:48 PM CDT
Astronomical Twilight 5:14 AM CDT 9:22 PM CDT
Moon 11:42 AM CDT (9/3) 10:46 PM CDT (9/3)
Length of Visible Light 13h 53m
Length of Day
12h 58m
Waxing Crescent, 25% of the Moon is Illuminated
Sep 3
Waxing Crescent
Sep 5
First Quarter
Sep 13
Full
Sep 21
Last Quarter
Sep 28
New

Hourly Weather History & Observations

Time (CDT) Temp. Heat Index Dew Point Humidity Pressure Visibility Wind Dir Wind Speed Gust Speed Precip Events Conditions
12:53 AM 77.0 °F - 71.1 °F 82% 29.91 in 10.0 mi SSW 10.4 mph - N/A   Clear
1:53 AM 75.9 °F - 70.0 °F 82% 29.89 in 10.0 mi SSW 9.2 mph - N/A   Clear
2:53 AM 75.9 °F - 70.0 °F 82% 29.88 in 9.0 mi SSW 10.4 mph - N/A   Clear
3:53 AM 75.0 °F - 70.0 °F 84% 29.88 in 9.0 mi SSW 8.1 mph - N/A   Clear
4:53 AM 75.9 °F - 70.0 °F 82% 29.88 in 9.0 mi SSW 8.1 mph - N/A   Partly Cloudy
5:53 AM 75.9 °F - 69.1 °F 79% 29.88 in 9.0 mi SSE 6.9 mph 19.6 mph N/A   Clear
6:53 AM 75.0 °F - 69.1 °F 82% 29.91 in 8.0 mi SW 8.1 mph - N/A   Clear
7:53 AM 77.0 °F - 69.1 °F 76% 29.87 in 7.0 mi SSW 18.4 mph - N/A   Clear
8:53 AM 78.1 °F - 69.1 °F 74% 29.91 in 9.0 mi SSW 4.6 mph - N/A   Clear
9:53 AM 80.1 °F 83.2 °F 70.0 °F 71% 29.91 in 8.0 mi SSW 9.2 mph - N/A   Clear
10:53 AM 81.0 °F 84.9 °F 71.1 °F 72% 29.91 in 9.0 mi SSW 8.1 mph - N/A   Clear
11:53 AM 87.1 °F 93.6 °F 72.0 °F 61% 29.91 in 10.0 mi WSW 8.1 mph 17.3 mph N/A   Clear
12:53 PM 87.1 °F 93.6 °F 72.0 °F 61% 29.91 in 10.0 mi West 9.2 mph - N/A   Clear
1:53 PM 88.0 °F 95.6 °F 73.0 °F 61% 29.91 in 10.0 mi West 5.8 mph - N/A   Clear
3:53 PM 90.0 °F 97.9 °F 73.0 °F 57% 29.92 in 10.0 mi Calm Calm - N/A   Mostly Cloudy
4:53 PM 91.9 °F 100.7 °F 73.0 °F 54% 29.91 in 10.0 mi Calm Calm - N/A   Partly Cloudy
5:53 PM 88.0 °F 96.5 °F 73.9 °F 63% 29.90 in 10.0 mi North 6.9 mph - N/A   Clear
6:53 PM 86.0 °F 95.1 °F 75.0 °F 70% 29.93 in 10.0 mi NW 5.8 mph - N/A   Clear
7:53 PM 81.0 °F 86.7 °F 75.0 °F 82% 29.94 in 9.0 mi NNW 6.9 mph - N/A   Clear
8:53 PM 79.0 °F - 73.9 °F 84% 29.96 in 9.0 mi North 6.9 mph - N/A   Mostly Cloudy
9:53 PM 78.1 °F - 69.1 °F 74% 29.99 in 10.0 mi North 9.2 mph - N/A   Mostly Cloudy
10:53 PM 75.0 °F - 66.0 °F 73% 30.01 in 10.0 mi North 6.9 mph - N/A   Mostly Cloudy
11:53 PM 75.0 °F - 63.0 °F 66% 30.03 in 10.0 mi North 10.4 mph - N/A   Mostly Cloudy